Effective Sunday, March 17, 2024, the National Weather Service National Data Buoy Center will discontinue its Dial-A-Buoy Interactive Voice Response system. For more information, see Service Change Notice 24-06 (PDF).

Station BYGL1 - 8762482 - West Bank 1, Bayou Gauche, LA Image indicating link to RSS feed of recent meteorological observations for station BYGL1


Conditions at BYGL1 as of
(5:18 pm CST)
2318 GMT on 03/01/2024:
     

Click on the graph icon in the table below to see a time series plot of the last five days of that observation.

5-day plot - Atmospheric Pressure Atmospheric Pressure (PRES):30.06 in
5-day plot - Air Temperature Air Temperature (ATMP): 57.9 °F
5-day plot - Water Temperature Water Temperature (WTMP): 62.8 °F
NOS Water Level Observation Network Water Level
Previous observations
TIME
(CST)
5-day plot - Wind Direction
WDIR
 
5-day plot - Wind Speed
WSPD
kts
5-day plot - Wind Gust
GST
kts
5-day plot - Wave Height
WVHT
ft
5-day plot - Dominant Wave Period
DPD
sec
5-day plot - Average Wave Period
APD
sec
5-day plot - Mean Wave Direction
MWD
 
5-day plot - Atmospheric Pressure
PRES
in
5-day plot - Pressure Tendency
PTDY
in
5-day plot - Air Temperature
ATMP
°F
5-day plot - Water Temperature
WTMP
°F
5-day plot - Dew Point
DEWP
°F
5-day plot - Salinity
SAL
psu
5-day plot - Visibility
VIS
nmi
5-day plot - Tide (above MLLW)
TIDE
ft
2024-03-01 05:12 pm-------30.07- 58.1 62.8----
2024-03-01 05:06 pm-------30.07- 58.1 62.8----
2024-03-01 05:00 pm-------30.06-0.01 57.9 62.8----
2024-03-01 04:54 pm-------30.06- 57.9 62.8----
2024-03-01 04:48 pm-------30.07- 57.9 62.8----
2024-03-01 04:42 pm-------30.07- 57.7 62.8----
2024-03-01 04:36 pm-------30.07- 57.9 62.8----
2024-03-01 04:30 pm-------30.07- 57.9 62.8----
2024-03-01 04:24 pm-------30.06- 57.7 62.8----
2024-03-01 04:18 pm-------30.06- 57.7 62.8----
2024-03-01 04:12 pm-------30.07- 57.6 62.8----
2024-03-01 04:06 pm-------30.07- 57.7 62.8----
2024-03-01 04:00 pm-------30.08+0.00 57.7 62.8----
2024-03-01 03:54 pm-------30.07- 57.7 62.8----
2024-03-01 03:48 pm-------30.07- 57.7 62.8----
2024-03-01 03:42 pm-------30.07- 57.7 62.8----
2024-03-01 03:36 pm-------30.06- 57.6 62.8----
2024-03-01 03:30 pm-------30.06- 57.6 62.8----
2024-03-01 03:24 pm-------30.06- 57.2 62.8----
2024-03-01 03:18 pm-------30.07- 57.2 62.8----
2024-03-01 03:12 pm-------30.06- 57.2 62.8----
2024-03-01 03:06 pm-------30.07- 57.2 62.8----
2024-03-01 03:00 pm-------30.07-0.01 57.6 62.8----
2024-03-01 02:54 pm-------30.08- 57.6 62.8----
2024-03-01 02:48 pm-------30.06- 57.6 62.8----
2024-03-01 02:42 pm-------30.06- 57.2 62.8----
2024-03-01 02:36 pm-------30.06- 57.0 62.8----
2024-03-01 02:30 pm-------30.07- 57.0 62.8----
2024-03-01 02:24 pm-------30.08- 57.2 62.8----
2024-03-01 02:18 pm-------30.08- 57.6 62.8----
2024-03-01 02:12 pm-------30.08- 57.7 62.8----
2024-03-01 02:06 pm-------30.07- 58.1 62.8----
2024-03-01 02:00 pm-------30.07-0.02 58.3 62.8----
2024-03-01 01:54 pm-------30.07- 58.5 62.8----
2024-03-01 01:48 pm-------30.06- 58.5 62.8----
2024-03-01 01:42 pm-------30.07- 58.6 62.8----
2024-03-01 01:36 pm-------30.06- 59.0 62.8----
2024-03-01 01:30 pm-------30.06- 59.2 62.8----
2024-03-01 01:24 pm-------30.06- 59.0 62.8----
2024-03-01 01:18 pm-------30.06- 58.6 62.8----
2024-03-01 01:12 pm-------30.06- 58.8 62.8----
2024-03-01 01:06 pm-------30.07- 58.6 62.8----
2024-03-01 01:00 pm-------30.07-0.02 59.0 62.8----
2024-03-01 12:54 pm-------30.08- 59.2 62.6----
2024-03-01 12:48 pm-------30.08- 59.5 62.6----
2024-03-01 12:42 pm-------30.07- 59.4 62.6----
2024-03-01 12:36 pm-------30.08- 59.4 62.6----
2024-03-01 12:30 pm-------30.08- 59.7 62.6----
2024-03-01 12:24 pm-------30.08- 60.3 62.6----
2024-03-01 12:18 pm-------30.09- 60.6 62.6----
2024-03-01 12:12 pm-------30.08- 60.6 62.6----
2024-03-01 12:06 pm-------30.09- 60.6 62.6----
2024-03-01 12:00 pm-------30.09+0.00 60.8 62.6----
2024-03-01 11:54 am-------30.08- 61.0 62.6----
2024-03-01 11:48 am-------30.09- 61.0 62.6----
2024-03-01 11:42 am-------30.09- 61.2 62.6----
2024-03-01 11:36 am-------30.10- 61.0 62.6----
2024-03-01 11:30 am-------30.09- 61.7 62.6----
2024-03-01 11:24 am-------30.09- 62.4 62.6----
2024-03-01 11:18 am-------30.10- 62.2 62.6----
2024-03-01 11:12 am-------30.09- 62.2 62.6----
2024-03-01 11:06 am-------30.10- 62.8 62.6----
2024-03-01 11:00 am-------30.09+0.01 63.0 62.6----
2024-03-01 10:54 am-------30.10- 63.0 62.6----
2024-03-01 10:48 am-------30.10- 62.8 62.6----
2024-03-01 10:42 am-------30.09- 62.8 62.6----
2024-03-01 10:36 am-------30.10- 62.8 62.6----
2024-03-01 10:30 am-------30.09- 62.8 62.8----
2024-03-01 10:24 am-------30.09- 62.8 62.8----
2024-03-01 10:18 am-------30.10- 62.8 62.8----
2024-03-01 10:12 am-------30.10- 63.0 62.8----
2024-03-01 10:06 am-------30.09- 63.0 62.8----
2024-03-01 10:00 am-------30.10+0.02 63.1 62.8----
2024-03-01 09:54 am-------30.09- 63.1 63.0----
2024-03-01 09:48 am-------30.09- 63.0 63.0----
2024-03-01 09:42 am-------30.09- 63.0 63.0----
2024-03-01 09:36 am-------30.09- 62.8 63.0----
2024-03-01 09:30 am-------30.08- 63.1 63.0----
2024-03-01 09:24 am-------30.09- 63.1 63.0----
2024-03-01 09:18 am-------30.09- 62.2 63.0----
2024-03-01 09:12 am-------30.09- 62.4 63.0----
2024-03-01 09:06 am-------30.09- 61.7 63.0----
2024-03-01 09:00 am-------30.09+0.02 61.7 63.0----
2024-03-01 08:54 am-------30.09- 62.1 63.0----
2024-03-01 08:48 am-------30.09- 62.2 63.0----
2024-03-01 08:42 am-------30.09- 62.2 63.0----
2024-03-01 08:36 am-------30.08- 62.1 63.0----
2024-03-01 08:30 am-------30.08- 61.7 63.0----
2024-03-01 08:24 am-------30.08- 61.5 63.0----
2024-03-01 08:18 am-------30.08- 61.3 63.0----
2024-03-01 08:12 am-------30.08- 61.2 63.0----
2024-03-01 08:06 am-------30.08- 61.7 63.0----
2024-03-01 08:00 am-------30.08+0.01 61.3 63.0----
2024-03-01 07:54 am-------30.08- 61.2 62.8----
2024-03-01 07:48 am-------30.07- 60.6 62.8----
2024-03-01 07:42 am-------30.07- 60.6 62.8----
2024-03-01 07:36 am-------30.07- 60.8 62.8----
2024-03-01 07:30 am-------30.08- 61.7 62.8----
2024-03-01 07:24 am-------30.07- 61.5 62.8----
2024-03-01 07:18 am-------30.08- 61.3 62.8----
2024-03-01 07:12 am-------30.08- 61.2 62.8----
2024-03-01 07:06 am-------30.07- 60.6 62.8----
2024-03-01 07:00 am-------30.08-0.01 60.3 62.8----
2024-03-01 06:54 am-------30.08- 60.1 62.8----
2024-03-01 06:48 am-------30.08- 59.7 62.8----
2024-03-01 06:42 am-------30.07- 59.5 62.8----
2024-03-01 06:36 am-------30.07- 59.0 62.8----
2024-03-01 06:30 am-------30.07- 58.5 62.8----
2024-03-01 06:24 am-------30.07- 58.3 62.8----
2024-03-01 06:18 am-------30.07- 58.1 62.8----
2024-03-01 06:12 am-------30.07- 58.1 62.8----
2024-03-01 06:06 am-------30.07- 57.9 62.8----
2024-03-01 06:00 am-------30.07+0.00 57.7 62.8----
2024-03-01 05:54 am-------30.07- 57.6 62.8----
2024-03-01 05:48 am-------30.07- 57.2 62.8----
2024-03-01 05:42 am-------30.07- 57.0 62.8----
2024-03-01 05:36 am-------30.08- 56.8 63.0----
2024-03-01 05:30 am-------30.08- 56.7 63.0----
2024-03-01 05:24 am-------30.08- 56.5 63.0----
2024-03-01 05:18 am-------30.07- 56.5 63.0----
2024-03-01 05:12 am-------30.07- 56.5 63.0----
2024-03-01 05:06 am-------30.08- 56.5 63.0----
2024-03-01 05:00 am-------30.07-0.02 56.3 63.0----
2024-03-01 04:54 am-------30.08- 56.1 63.0----
2024-03-01 04:48 am-------30.09- 55.9 63.0----
2024-03-01 04:42 am-------30.09- 55.6 63.0----
2024-03-01 04:36 am-------30.09- 55.6 63.0----
2024-03-01 04:30 am-------30.09- 55.0 63.0----
2024-03-01 04:24 am-------30.09- 55.0 63.0----
2024-03-01 04:18 am-------30.09- 54.7 63.0----
2024-03-01 04:12 am-------30.09- 54.7 63.0----
2024-03-01 04:06 am-------30.09- 54.9 63.0----
2024-03-01 04:00 am-------30.09-0.05 55.0 63.1----
2024-03-01 03:54 am-------30.09- 55.4 63.1----
2024-03-01 03:48 am-------30.09- 55.4 63.1----
2024-03-01 03:42 am-------30.07- 55.4 63.1----
2024-03-01 03:36 am-------30.06- 54.3 63.1----
2024-03-01 03:30 am-------30.09- 53.4 63.1----
2024-03-01 03:24 am-------30.08- 54.7 63.1----
2024-03-01 03:18 am-------30.07- 54.7 63.1----
2024-03-01 03:12 am-------30.06- 54.0 63.1----
2024-03-01 03:06 am-------30.06- 53.6 63.1----
2024-03-01 03:00 am-------30.06-0.10 53.8 63.3----
2024-03-01 02:54 am-------30.06- 53.2 63.3----
2024-03-01 02:48 am-------30.08- 53.4 63.3----
2024-03-01 02:42 am-------30.09- 53.8 63.3----
2024-03-01 02:36 am-------30.09- 53.6 63.3----
2024-03-01 02:30 am-------30.08- 53.1 63.5----
2024-03-01 02:24 am-------30.09- 52.5 63.5----
2024-03-01 02:18 am-------30.10- 53.2 63.5----
2024-03-01 02:12 am-------30.08- 53.6 63.5----
2024-03-01 02:06 am-------30.08- 53.6 63.5----
2024-03-01 02:00 am-------30.09-0.07 53.1 63.5----
2024-03-01 01:54 am-------30.07- 52.5 63.5----
2024-03-01 01:48 am-------30.08- 52.2 63.5----
2024-03-01 01:42 am-------30.09- 52.0 63.5----
2024-03-01 01:36 am-------30.10- 51.8 63.5----
2024-03-01 01:30 am-------30.11- 51.8 63.7----
2024-03-01 01:24 am-------30.11- 51.6 63.7----
2024-03-01 01:18 am-------30.10- 51.6 63.7----
2024-03-01 01:12 am-------30.13- 51.6 63.7----
2024-03-01 01:06 am-------30.13- 51.4 63.7----
2024-03-01 01:00 am-------30.14-0.08 51.6 63.7----
2024-03-01 12:54 am-------30.14- 51.4 63.7----
2024-03-01 12:48 am-------30.14- 51.3 63.7----
2024-03-01 12:42 am-------30.13- 51.3 63.7----
2024-03-01 12:36 am-------30.13- 51.1 63.7----
2024-03-01 12:30 am-------30.14- 50.9 63.9----
2024-03-01 12:24 am-------30.14- 50.9 63.9----
2024-03-01 12:18 am-------30.15- 50.7 63.9----
2024-03-01 12:12 am-------30.15- 50.7 63.9----
2024-03-01 12:06 am-------30.16- 50.7 63.9----
2024-03-01 12:00 am-------30.16-0.10- 64.0----
2024-02-29 11:54 pm-------30.16-- 64.0----
2024-02-29 11:48 pm-------30.18- 50.5 64.0----
2024-02-29 11:42 pm-------30.18- 50.5 64.0----
2024-02-29 11:36 pm-------30.18- 50.9 64.0----
2024-02-29 11:30 pm-------30.17- 50.9 64.0----
2024-02-29 11:24 pm-------30.16- 50.9 64.0----
2024-02-29 11:18 pm-------30.16- 50.9 64.0----
2024-02-29 11:12 pm-------30.16- 51.1 64.2----
2024-02-29 11:06 pm-------30.16- 51.1 64.2----
2024-02-29 11:00 pm-------30.16-0.03 51.4 64.2----
2024-02-29 10:54 pm-------30.17- 51.4 64.2----
2024-02-29 10:48 pm-------30.17- 51.8 64.2----
2024-02-29 10:42 pm-------30.18- 51.4 64.2----
2024-02-29 10:36 pm-------30.19- 52.0 64.2----
2024-02-29 10:30 pm-------30.21- 52.0 64.4----
2024-02-29 10:24 pm-------30.21- 52.3 64.4----
2024-02-29 10:18 pm-------30.21- 52.7 64.4----
2024-02-29 10:12 pm-------30.21- 52.5 64.4----
2024-02-29 10:06 pm-------30.22- 52.5 64.4----
2024-02-29 10:00 pm-------30.22+0.01 52.7 64.4----
2024-02-29 09:54 pm-------30.22- 52.7 64.4----
2024-02-29 09:48 pm-------30.23- 53.1 64.6----
2024-02-29 09:42 pm-------30.23- 53.6 64.6----
2024-02-29 09:36 pm-------30.24- 54.9 64.6----
2024-02-29 09:30 pm-------30.26- 57.2 64.6----
2024-02-29 09:24 pm-------30.24- 57.2 64.6----
2024-02-29 09:18 pm-------30.23- 57.2 64.8----
2024-02-29 09:12 pm-------30.23- 57.2 64.8----
2024-02-29 09:06 pm-------30.26- 57.2 64.8----
2024-02-29 09:00 pm-------30.26+0.09 57.0 64.8----
2024-02-29 08:54 pm-------30.26- 57.0 64.8----
2024-02-29 08:48 pm-------30.26- 56.8 64.8----
2024-02-29 08:42 pm-------30.26- 56.7 64.8----
2024-02-29 08:36 pm-------30.25- 56.7 64.8----
2024-02-29 08:30 pm-------30.26- 56.7 64.8----
2024-02-29 08:24 pm-------30.25- 57.0 64.8----
2024-02-29 08:18 pm-------30.24- 57.0 64.8----
2024-02-29 08:12 pm-------30.23- 57.0 64.8----
2024-02-29 08:06 pm-------30.19- 56.7 64.9----
2024-02-29 08:00 pm-------30.19-0.02 56.7 64.9----
2024-02-29 07:54 pm-------30.20- 56.7 64.9----
2024-02-29 07:48 pm-------30.17- 56.7 64.9----
2024-02-29 07:42 pm-------30.19- 56.7 64.9----
2024-02-29 07:36 pm-------30.19- 56.7 64.9----
2024-02-29 07:30 pm-------30.21- 56.7 64.9----
2024-02-29 07:24 pm-------30.22- 56.7 65.1----
2024-02-29 07:18 pm-------30.21- 56.8 65.1----
2024-02-29 07:12 pm-------30.21- 56.8 65.1----
2024-02-29 07:06 pm-------30.20- 56.7 65.1----
2024-02-29 07:00 pm-------30.21-0.01 56.7 65.1----
2024-02-29 06:54 pm-------30.22- 56.5 65.1----
2024-02-29 06:48 pm-------30.23- 56.7 65.1----
2024-02-29 06:42 pm-------30.22- 56.7 65.1----
2024-02-29 06:36 pm-------30.20- 56.5 65.1----
2024-02-29 06:30 pm-------30.19- 56.5 65.1----
2024-02-29 06:24 pm-------30.17- 56.5 65.3----
2024-02-29 06:18 pm-------30.18- 56.7 65.3----
2024-02-29 06:12 pm-------30.18- 56.8 65.3----
2024-02-29 06:06 pm-------30.18- 56.8 65.3----
2024-02-29 06:00 pm-------30.17-0.06 57.2 65.3----
2024-02-29 05:54 pm-------30.16- 57.4 65.3----
2024-02-29 05:48 pm-------30.18- 57.4 65.3----
2024-02-29 05:42 pm-------30.19- 57.6 65.5----
2024-02-29 05:36 pm-------30.20- 57.6 65.5----